Regional Weather Roundup
Issued by NWS

Home | Current Version | Previous Version | Text Only | Print | Product List | Glossary Off
Versions: 1 2 3 4 5 6 7 8 9 10 11 12 13 14 15 16 17 18 19 20 21 22 23 24 25 26 27 28 29 30 31 32 33 34 35 36 37 38 39 40 41 42 43 44 45 46 47 48 49 50

000
ASUS45 KSLC 231210
RWRUT

UTAH REGIONAL WEATHER ROUNDUP
NATIONAL WEATHER SERVICE SALT LAKE CITY UT
500 AM MST TUE JAN 23 2018

UTZ001>011-023>025-231300-

NORTHERN UTAH

CITY           SKY/WX    TMP DP  RH WIND       PRES   REMARKS
BRIGHAM CITY   CLOUDY    25  22  89 CALM      30.35S
HILL AFB       CLOUDY    25  18  74 E6        30.32S WCI  18
LOGAN          HAZE      15   9  76 NW3       30.34S VSB 1/4
OGDEN          PTCLDY    25  18  74 S7        30.33S WCI  17
SALT LAKE CITY MOCLDY    30  24  78 SE7       30.34S WCI  23
TOOELE VALLEY  CLOUDY    23  19  86 S5        30.34S WCI  17
WENDOVER       CLEAR     17  13  84 E3        30.34S
HEBER CITY     FLURRIES  10   9  92 CALM      30.30S
WEST JORDAN    CLOUDY    25  22  89 SW6       30.33S WCI  18

$$

UTZ011>015-024>027-231300-

CENTRAL/NORTHEAST UTAH

CITY           SKY/WX    TMP DP  RH WIND       PRES   REMARKS
PROVO AIRPORT  PTCLDY    15  13  91 S3        30.36S
MOAB/CANYONLAN CLEAR     20  17  88 CALM      30.32R
DELTA          CLOUDY    12  12 100 E3        30.34R
PRICE          PTCLDY    13   9  84 N7        30.27S WCI   3
ROOSEVELT      PTCLDY    10   7  85 CALM      30.37R
VERNAL         PTCLDY     5   1  83 W6        30.33R WCI  -6

$$

UTZ013>016-019>022-027-231300-

SOUTHERN UTAH

CITY           SKY/WX    TMP DP  RH WIND       PRES   REMARKS
BRYCE CANYON   PTCLDY     8   5  87 W8        30.26S WCI  -4
CEDAR CITY     PTCLDY    10   8  92 CALM      30.27S
MILFORD        MOCLDY     6   3  87 W5        30.32R WCI  -3
ST GEORGE      SUNNY     31  24  75 CALM      30.32S
HANKSVILLE     CLEAR     12   3  67 CALM      30.36R
BLANDING         N/A     15  10  78 NE3       30.33F

$$

REGIONAL REPORTS     COLORADO/ARIZONA

CITY           SKY/WX    TMP DP  RH WIND       PRES   REMARKS
CRAIG, CO      CLEAR      7   3  84 CALM      30.28R
GRAND JUNCTION CLOUDY    18  15  88 E5        30.33S WCI  11
RIFLE, CO      CLOUDY    24  19  81 CALM      30.31S
MONTROSE, CO   MOCLDY    16  10  77 N3        30.33S
CORTEZ, CO     PTCLDY     7   3  84 E7        30.27S WCI  -5
COLORADO CITY    N/A     19  16  86 CALM      30.29F
PAGE, AZ       CLEAR     27  12  53 CALM      30.30S
GRAND CANYON   PTCLDY    26   4  38 NE9       30.24S WCI  17
KINGMAN, AZ    CLEAR    N/A N/A N/A E7        30.23S
FLAGSTAFF, AZ  PTCLDY    17   2  51 E5        30.22S WCI  10

$$

REGIONAL REPORTS    NEVADA/IDAHO/WYOMING

CITY           SKY/WX    TMP DP  RH WIND       PRES   REMARKS
LAS VEGAS, NV  PTCLDY    39  27  62 S3        30.26S
ELY, NY        PTCLDY     4   1  88 S17       30.29S WCI -16
ELKO, NV       PTCLDY    18  15  88 CALM      30.29S
POCATELLO, ID  MOCLDY    29  24  82 SW9       30.31R WCI  20
BURLEY, ID     CLEAR     26  21  81 CALM      30.31R
FORT BRIDGER,  PTSUNNY   19  16  86 W8        30.28R WCI   9
EVANSTON, WY   MOCLDY    18  16  92 SW8       30.25R WCI   8
ROCK SPRINGS,  CLEAR     15  11  83 W16       30.21S WCI  -1

$$



USA.gov is the U.S. government's official web portal to all federal, state and local government web resources and services.